TimeCST,TemperatureF,Dew PointF,Humidity,Sea Level PressureIn,VisibilityMPH,Wind Direction,Wind SpeedMPH,Gust SpeedMPH,PrecipitationIn,Events,Conditions,WindDirDegrees,DateUTC
12:15 AM,33.8,24.8,70,30.07,10.0,SE,6.9,-,N/A,,Clear,140,2013-02-18 06:15:00
12:55 AM,32.0,24.8,75,30.06,10.0,SE,8.1,-,N/A,,Clear,140,2013-02-18 06:55:00
1:15 AM,35.6,24.8,65,30.05,10.0,SE,10.4,-,N/A,,Clear,140,2013-02-18 07:15:00
1:35 AM,35.6,23.0,60,30.04,10.0,SSE,12.7,-,N/A,,Clear,150,2013-02-18 07:35:00
1:55 AM,35.6,23.0,60,30.03,10.0,SSE,10.4,-,N/A,,Clear,150,2013-02-18 07:55:00
2:15 AM,35.6,23.0,60,30.03,10.0,SSE,13.8,-,N/A,,Clear,150,2013-02-18 08:15:00
2:35 AM,35.6,23.0,60,30.02,10.0,SSE,11.5,-,N/A,,Clear,150,2013-02-18 08:35:00
2:55 AM,35.6,23.0,60,30.01,10.0,SSE,11.5,-,N/A,,Clear,150,2013-02-18 08:55:00
3:15 AM,35.6,23.0,60,30.01,10.0,SSE,10.4,-,N/A,,Clear,150,2013-02-18 09:15:00
3:35 AM,37.4,23.0,56,30.00,10.0,SSE,11.5,-,N/A,,Clear,160,2013-02-18 09:35:00
3:55 AM,37.4,24.8,60,30.00,10.0,SSE,13.8,-,N/A,,Clear,160,2013-02-18 09:55:00
4:15 AM,37.4,23.0,56,30.00,10.0,SSE,11.5,-,N/A,,Clear,160,2013-02-18 10:15:00
4:35 AM,37.4,24.8,60,30.00,10.0,SSE,12.7,16.1,N/A,,Clear,160,2013-02-18 10:35:00
4:55 AM,37.4,24.8,60,29.99,10.0,SSE,13.8,19.6,N/A,,Clear,160,2013-02-18 10:55:00
5:15 AM,37.4,24.8,60,29.99,10.0,South,12.7,-,N/A,,Clear,170,2013-02-18 11:15:00
5:35 AM,37.4,26.6,65,29.99,10.0,SSE,11.5,-,N/A,,Clear,160,2013-02-18 11:35:00
5:55 AM,37.4,26.6,65,29.98,10.0,South,11.5,17.3,N/A,,Clear,170,2013-02-18 11:55:00
6:15 AM,37.4,26.6,65,29.98,10.0,South,10.4,-,N/A,,Clear,170,2013-02-18 12:15:00
6:35 AM,37.4,26.6,65,29.97,10.0,South,11.5,-,N/A,,Clear,170,2013-02-18 12:35:00
6:55 AM,37.4,26.6,65,29.96,10.0,South,12.7,-,N/A,,Clear,170,2013-02-18 12:55:00
7:15 AM,37.4,28.4,70,29.97,10.0,South,12.7,-,N/A,,Clear,170,2013-02-18 13:15:00
7:35 AM,39.2,28.4,65,29.97,10.0,South,11.5,-,N/A,,Clear,170,2013-02-18 13:35:00
7:55 AM,41.0,30.2,65,29.97,10.0,South,12.7,18.4,N/A,,Clear,170,2013-02-18 13:55:00
8:15 AM,41.0,30.2,65,29.96,10.0,South,12.7,-,N/A,,Clear,170,2013-02-18 14:15:00
8:35 AM,42.8,32.0,66,29.96,10.0,South,17.3,-,N/A,,Clear,180,2013-02-18 14:35:00
8:55 AM,46.4,33.8,62,29.95,10.0,South,16.1,-,N/A,,Clear,180,2013-02-18 14:55:00
9:15 AM,48.2,35.6,62,29.94,10.0,South,17.3,24.2,N/A,,Clear,190,2013-02-18 15:15:00
9:35 AM,50.0,35.6,58,29.93,10.0,South,20.7,24.2,N/A,,Clear,190,2013-02-18 15:35:00
9:55 AM,51.8,37.4,58,29.93,10.0,South,17.3,28.8,N/A,,Clear,190,2013-02-18 15:55:00
10:15 AM,51.8,39.2,62,29.92,10.0,South,18.4,24.2,N/A,,Clear,190,2013-02-18 16:15:00
10:35 AM,53.6,41.0,62,29.92,10.0,South,23.0,29.9,N/A,,Clear,190,2013-02-18 16:35:00
10:55 AM,55.4,41.0,58,29.91,10.0,South,20.7,28.8,N/A,,Clear,190,2013-02-18 16:55:00
11:15 AM,55.4,41.0,58,29.90,10.0,South,26.5,34.5,N/A,,Clear,190,2013-02-18 17:15:00
11:35 AM,55.4,41.0,58,29.89,10.0,South,25.3,32.2,N/A,,Clear,190,2013-02-18 17:35:00
11:55 AM,57.2,41.0,55,29.88,10.0,South,20.7,31.1,N/A,,Mostly Cloudy,190,2013-02-18 17:55:00
12:15 PM,59.0,41.0,51,29.87,10.0,South,23.0,27.6,N/A,,Overcast,190,2013-02-18 18:15:00
12:35 PM,60.8,41.0,48,29.85,10.0,SSW,26.5,32.2,N/A,,Mostly Cloudy,200,2013-02-18 18:35:00
12:55 PM,60.8,39.2,45,29.84,10.0,SSW,25.3,38.0,N/A,,Mostly Cloudy,200,2013-02-18 18:55:00
1:15 PM,60.8,37.4,42,29.83,10.0,SSW,21.9,32.2,N/A,,Mostly Cloudy,200,2013-02-18 19:15:00
1:35 PM,60.8,35.6,39,29.80,10.0,South,26.5,34.5,N/A,,Mostly Cloudy,190,2013-02-18 19:35:00
1:55 PM,60.8,33.8,36,29.79,10.0,SSW,28.8,36.8,N/A,,Mostly Cloudy,200,2013-02-18 19:55:00
2:15 PM,59.0,32.0,36,29.80,10.0,South,24.2,40.3,N/A,,Overcast,190,2013-02-18 20:15:00
2:35 PM,59.0,32.0,36,29.80,10.0,SSW,20.7,31.1,N/A,,Overcast,200,2013-02-18 20:35:00
2:55 PM,55.4,37.4,51,29.78,10.0,SSW,31.1,40.3,N/A,Rain,Light Rain,200,2013-02-18 20:55:00
3:15 PM,57.2,35.6,44,29.79,10.0,SSW,16.1,21.9,N/A,,Overcast,210,2013-02-18 21:15:00
3:35 PM,55.4,35.6,47,29.78,10.0,SSW,25.3,38.0,N/A,Rain,Light Rain,210,2013-02-18 21:35:00
3:55 PM,51.8,41.0,67,29.79,7.0,SSW,17.3,27.6,0.01,Rain,Rain,200,2013-02-18 21:55:00
4:15 PM,51.8,42.8,71,29.76,7.0,South,18.4,29.9,0.02,Rain,Light Rain,190,2013-02-18 22:15:00
4:35 PM,50.0,42.8,76,29.76,10.0,South,15.0,-,0.03,Rain,Rain,170,2013-02-18 22:35:00
4:55 PM,51.8,42.8,71,29.74,10.0,South,23.0,28.8,0.04,Rain,Light Rain,180,2013-02-18 22:55:00
5:35 PM,51.8,42.8,71,29.71,10.0,South,26.5,34.5,N/A,,Overcast,180,2013-02-18 23:35:00
5:55 PM,51.8,42.8,71,29.70,10.0,South,27.6,40.3,N/A,Rain,Light Rain,170,2013-02-18 23:55:00
6:15 PM,50.0,44.6,82,29.70,7.0,South,21.9,32.2,0.02,Rain,Light Rain,170,2013-02-19 00:15:00
6:35 PM,50.0,44.6,82,29.69,5.0,South,26.5,32.2,0.03,Rain,Light Rain,170,2013-02-19 00:35:00
6:55 PM,50.0,44.6,82,29.67,7.0,South,27.6,36.8,0.05,Rain,Light Rain,170,2013-02-19 00:55:00
7:15 PM,50.0,44.6,82,29.67,5.0,South,27.6,36.8,0.02,Rain,Rain,170,2013-02-19 01:15:00
7:35 PM,50.0,44.6,82,29.65,10.0,South,23.0,33.4,0.04,Rain,Light Rain,170,2013-02-19 01:35:00
7:55 PM,50.0,44.6,82,29.64,10.0,SSE,26.5,32.2,0.05,,Overcast,160,2013-02-19 01:55:00
8:15 PM,50.0,44.6,82,29.66,5.0,South,20.7,27.6,0.01,Rain,Rain,180,2013-02-19 02:15:00
8:35 PM,50.0,46.4,87,29.66,5.0,South,23.0,26.5,0.04,Rain,Rain,190,2013-02-19 02:35:00
8:55 PM,50.0,46.4,87,29.64,5.0,South,24.2,32.2,0.06,Rain,Light Rain,180,2013-02-19 02:55:00
9:15 PM,50.0,46.4,87,29.59,10.0,South,31.1,38.0,0.01,Rain,Light Rain,170,2013-02-19 03:15:00
9:35 PM,50.0,46.4,87,29.61,10.0,South,27.6,36.8,0.03,,Overcast,180,2013-02-19 03:35:00
9:55 PM,50.0,46.4,87,29.63,7.0,South,24.2,-,0.05,Rain,Light Rain,180,2013-02-19 03:55:00
10:15 PM,50.0,46.4,87,29.64,4.0,SSW,25.3,32.2,0.02,Rain,Heavy Rain,210,2013-02-19 04:15:00
10:35 PM,50.0,46.4,87,29.66,4.0,SW,24.2,32.2,0.03,Rain,Rain,230,2013-02-19 04:35:00
10:55 PM,42.8,41.0,93,29.72,5.0,West,25.3,32.2,0.04,Rain,Rain,280,2013-02-19 04:55:00
11:15 PM,41.0,37.4,87,29.74,10.0,WNW,27.6,33.4,0.01,,Light Drizzle,290,2013-02-19 05:15:00
11:35 PM,41.0,35.6,81,29.77,10.0,WNW,24.2,33.4,0.02,,Overcast,290,2013-02-19 05:35:00
11:55 PM,41.0,35.6,81,29.79,10.0,WNW,21.9,34.5,0.02,,Overcast,290,2013-02-19 05:55:00